Location: Colebrook
(42.0017°N, 73.0973°W)
Time: 08:06:22
(UTC-04:00)

ISS - Pass Details

Date: 04 October 2021
Orbit: 417 x 423 km, 51.6° (Epoch: 16 October)

Event Time Altitude Azimuth Distance (km) Brightness Sun altitude
Rises 19:44:35 0° 303° (WNW) 2,364 1.3 -15.0°
Reaches altitude 10° 19:46:41 10° 300° (WNW) 1,498 0.1 -15.4°
Maximum altitude 19:50:01 67° 218° (SW) 458 -3.5 -16.0°
Enters shadow 19:51:27 31° 144° (SE) 764 -2.8 -16.2°
